Casper, WY

12:51 PM MST on December 07, 2019 (GMT -0700)
Natrona County International

Weather History for KCPR - October, 2019

Change the Weather History Date:

Saturday, October 5, 2019

  Actual Average Record
Temperature  
Mean Temperature 45 °F 49 °F  
Max Temperature 57 °F 64 °F 87 °F (1993)
Min Temperature 32 °F 34 °F 19 °F (1964)
Degree Days  
Heating Degree Days 20 16  
Month to date heating degree days 100 77  
Since 1 July heating degree days 271 362  
Cooling Degree Days 0 0  
Month to date cooling degree days 0 0  
Year to date cooling degree days 441 422  
Moisture  
Dew Point 28 °F    
Average Humidity 59    
Maximum Humidity 92    
Minimum Humidity 26    
Precipitation  
Precipitation T in 0.04 in 0.59 in (1962)
Month to date precipitation 0.30 0.21  
Year to date precipitation 11.00 10.37  
Snow  
Snow 0.00 in 0.20 in - ()
Month to date snowfall 0.0 1.0  
Since 1 July snowfall 0.0 2.8  
Since 1 September snowfall 0.0 2.8  
Snow Depth 0.00 in    
Sea Level Pressure  
Sea Level Pressure 30.08 in    
Wind  
Wind Speed 11 mph (WSW)    
Max Wind Speed 26 mph    
Max Gust Speed 35 mph    
Visibility 10 miles    
Events      
T = Trace of Precipitation, MM = Missing Value Source: NWS Daily Summary

Daily Weather History Graph

Daily Weather History Graph

Search for Another Location

Airport or City:

Astronomy

Oct. 05, 2019 Rise Set
Actual Time 7:07 AM MDT 6:40 PM MDT
Civil Twilight 6:39 AM MDT 7:08 PM MDT
Nautical Twilight 6:06 AM MDT 7:41 PM MDT
Astronomical Twilight 5:33 AM MDT 8:14 PM MDT
Moon 2:43 PM MDT (10/5) 11:58 PM MDT (10/5)
Length of Visible Light 12h 29m
Length of Day
11h 32m
Waxing Crescent, 50% of the Moon is Illuminated
Oct 5
Waxing Crescent
Oct 13
Full
Oct 21
Last Quarter
Oct 27
New
Nov 4
First Quarter

Hourly Weather History & Observations

Time (MDT) Temp. Windchill Dew Point Humidity Pressure Visibility Wind Dir Wind Speed Gust Speed Precip Events Conditions
12:53 AM 36.0 °F 28.5 °F 34.0 °F 93% 29.93 in 10.0 mi WSW 10.4 mph - N/A   Clear
1:53 AM 37.9 °F 29.6 °F 30.9 °F 76% 29.97 in 10.0 mi WSW 13.8 mph - N/A   Overcast
2:53 AM 36.0 °F 26.7 °F 28.9 °F 76% 30.00 in 10.0 mi SW 15.0 mph - N/A   Scattered Clouds
3:53 AM 34.0 °F 26.6 °F 28.9 °F 82% 30.03 in 10.0 mi SW 9.2 mph - N/A   Scattered Clouds
4:53 AM 37.0 °F 28.9 °F 28.9 °F 73% 30.05 in 10.0 mi SW 12.7 mph - N/A   Overcast
5:53 AM 36.0 °F 26.3 °F 30.0 °F 79% 30.10 in 10.0 mi SW 16.1 mph - N/A   Overcast
6:53 AM 37.9 °F 30.5 °F 32.0 °F 79% 30.11 in 10.0 mi SW 11.5 mph - N/A   Overcast
7:53 AM 37.0 °F 31.0 °F 32.0 °F 82% 30.14 in 10.0 mi WSW 8.1 mph - N/A   Mostly Cloudy
8:53 AM 39.9 °F 34.5 °F 32.0 °F 73% 30.15 in 10.0 mi WSW 8.1 mph - N/A   Partly Cloudy
9:53 AM 45.0 °F 38.2 °F 32.0 °F 60% 30.14 in 10.0 mi WSW 15.0 mph - N/A   Clear
10:53 AM 48.0 °F - 30.0 °F 50% 30.16 in 10.0 mi West 12.7 mph - N/A   Partly Cloudy
11:53 AM 50.0 °F - 28.9 °F 44% 30.14 in 10.0 mi WSW 16.1 mph 26.5 mph N/A   Scattered Clouds
12:53 PM 52.0 °F - 28.0 °F 40% 30.12 in 10.0 mi WSW 20.7 mph 29.9 mph N/A   Partly Cloudy
1:53 PM 53.1 °F - 25.0 °F 34% 30.06 in 10.0 mi West 16.1 mph 27.6 mph N/A   Clear
2:43 PM 55.9 °F - 24.1 °F 29% 30.06 in 10.0 mi West 12.7 mph 25.3 mph 0.00 in   Clear
2:53 PM 55.9 °F - 24.1 °F 29% 30.01 in 10.0 mi West 18.4 mph 32.2 mph 0.00 in   Clear
3:53 PM 55.0 °F - 21.9 °F 28% 30.02 in 10.0 mi NW 15.0 mph 25.3 mph N/A   Clear
4:53 PM 52.0 °F - 21.9 °F 31% 30.02 in 10.0 mi WNW 15.0 mph - N/A   Partly Cloudy
5:53 PM 50.0 °F - 24.1 °F 36% 30.04 in 10.0 mi WNW 10.4 mph - N/A   Clear
6:53 PM 48.9 °F - 23.0 °F 36% 30.04 in 10.0 mi Calm Calm - N/A   Scattered Clouds
7:53 PM 46.0 °F 41.0 °F 28.9 °F 51% 30.08 in 10.0 mi North 10.4 mph - N/A   Mostly Cloudy
8:53 PM 43.0 °F 37.7 °F 26.1 °F 51% 30.11 in 10.0 mi North 9.2 mph - N/A   Mostly Cloudy
9:53 PM 39.9 °F 35.8 °F 30.0 °F 68% 30.12 in 10.0 mi SSW 5.8 mph - N/A   Overcast
10:53 PM 37.9 °F 34.4 °F 28.0 °F 68% 30.15 in 10.0 mi West 4.6 mph - N/A   Clear
11:53 PM 34.0 °F 29.8 °F 27.0 °F 75% 30.17 in 10.0 mi WSW 4.6 mph - N/A   Partly Cloudy